Regional Weather Roundup
Issued by NWS Sterling, VA

Home | Current Version | Previous Version | Graphics & Text | Print | Product List | Glossary On
Versions: 1 2 3 4 5 6 7 8 9 10 11 12 13 14 15 16 17 18 19 20 21 22 23 24 25 26 27 28 29 30 31 32 33 34 35 36 37 38 39 40 41 42 43 44 45 46 47 48 49 50
000
ASUS41 KLWX 120510
RWRLWX

REGIONAL WEATHER ROUNDUP
NATIONAL WEATHER SERVICE BALTIMORE MD/WASHINGTON DC
1200 AM EST FRI FEB 12 2016

Note: "FAIR" indicates few or no clouds below 12,000 feet
with no significant weather and/or obstructions to visibility.
 TC=TEMPERATURE CELSIUS

 * =Non NWS site. Station does not report precipitation (e.g. rain,
    snow, etc.), thunder, or fog.

DCZ001-MDZ009-015-VAZ040>042-051-053>054-120600-
WASHINGTON METRO

CITY           SKY/WX    TMP DP  RH WIND       PRES   REMARKS
WASHINGTON NAT FAIR      22   1  40 W6        30.35R
DULLES         FAIR      19   3  49 W6        30.32S
ANDREWS AFB    CLEAR     21   0  40 NW10      30.30S WCI   9
FT BELVOIR     FAIR      20   1  42 W6        30.34S
QUANTICO       FAIR      22   7  52 CALM      30.37R
COLLEGE PARK*  FAIR      23   1  39 CALM      30.33S
LEESBURG*      FAIR      21   9  58 W5        30.33R
MANASSAS*      FAIR      14  10  85 S3        30.34R
GAITHERSBURG*  CLEAR     18  -2  41 W6        30.32S

$$

MDZ006>007-011-014-120600-
BALTIMORE METRO

CITY           SKY/WX    TMP DP  RH WIND       PRES   REMARKS
BWI AIRPORT    CLEAR     19   1  45 W10       30.31S WCI   7
MD SCIENCE CTR   N/A     21   1  41 MISG      30.36R
MARTIN STATE   CLEAR     23   5  46 W7        30.33S
ANNAPOLIS      CLEAR     22   3  44 NW8       30.32F WCI  12
FORT MEADE*    CLEAR     19   3  49 W8        30.34S WCI   9

$$

MDZ012-015-019>023-120600-
MARYLAND EASTERN SHORE

CITY           SKY/WX    TMP DP  RH WIND       PRES   REMARKS
OCEAN CITY     CLEAR     21   3  45 NW6       30.32R
SALISBURY      CLEAR     22   3  44 NW9       30.32R WCI  12
BAY BRIDGE AP*   N/A     23   1  39 NW13      30.32F WCI  11
CAMBRIDGE*     CLEAR     23   3  42 NW9       30.32S WCI  13
EASTON*        CLEAR     23   3  42 NW16      30.35F WCI   9

$$

MDZ017>025-120600-
SOUTHERN MARYLAND

CITY           SKY/WX    TMP DP  RH WIND       PRES   REMARKS
PATUXENT RIVER CLEAR     23   3  42 NW15G22   30.34R WCI  10
ST INIGOES     CLEAR     23   3  42 NW10      30.33R WCI  12
LEONARDTOWN*   CLEAR     21   1  42 NW8       30.35S WCI  12

$$

MDZ003>005-120600-
NORTH CENTRAL MARYLAND

CITY           SKY/WX    TMP DP  RH WIND       PRES   REMARKS
FREDERICK*     CLEAR     18   5  57 W6        30.33F
HAGERSTOWN APT CLEAR     16  -1  47 W8        30.27S WCI   5
WESTMINSTER*   MOCLDY    16   7  67 W8        30.25S WCI   5

$$

MDZ501>502-120600-
WESTERN MARYLAND

CITY           SKY/WX    TMP DP  RH WIND       PRES   REMARKS
OAKLAND*       MOCLDY     5   1  85 W6        30.08S
CUMBERLAND*    CLEAR     19   3  49 CALM      30.32S

$$

VAZ025>031-120600-
SHENANDOAH VALLEY

CITY           SKY/WX    TMP DP  RH WIND       PRES   REMARKS
WINCHESTER*    FAIR      18   5  57 NW6       30.29R
FRONT ROYAL*   FAIR      19   1  45 W3        30.28S
LURAY*         FAIR      18   3  53 CALM      30.27F
NEW MARKET*    FAIR      12   4  70 CALM      30.27S
STAUNTON*      FAIR      16   8  68 CALM      30.28S
WAYNESBORO*    FAIR      15  -1  49 W3        30.24S

$$

WVZ021-048>050-054>055-120600-
EASTERN WEST VIRGINIA PANHANDLE

CITY           SKY/WX    TMP DP  RH WIND       PRES   REMARKS
MARTINSBURG    FAIR      18   0  45 W8        30.29S WCI   8
PETERSBURG*    FAIR      16   4  57 CALM      30.29S

$$

VAZ036>039-050-120600-
CENTRAL FOOTHILLS

CITY           SKY/WX    TMP DP  RH WIND       PRES   REMARKS
CHARLOTTESVILL FAIR      20   1  43 NW3       30.31R
CULPEPER*      FAIR      15   5  64 CALM      30.33F
ORANGE*        FAIR      19   5  53 CALM      30.34S
GORDONSVILLE*  FAIR      20   4  49 CALM      30.32R
WARRENTON*     FAIR      15  10  80 CALM      30.32S

$$

VAZ055>057-120600-
NORTH AND CENTRAL PIEDMONT

CITY           SKY/WX    TMP DP  RH WIND       PRES   REMARKS
FREDERICKSBRG* FAIR      22   4  46 N5        30.34S
STAFFORD*      FAIR      17   4  57 CALM      30.38S

$$

NCZ024-NYZ072-PAZ021-071-VAZ022-071-120600-
OTHER REGIONAL OBSERVATIONS

CITY           SKY/WX    TMP DP  RH WIND       PRES   REMARKS
NEW YORK CITY  CLEAR     18  -3  39 NW10G24   30.21R WCI   6
PHILADELPHIA   CLEAR     21  -3  35 NW12      30.28R WCI   9
PITTSBURGH     CLEAR      8  -2  63 CALM      30.23F
ROANOKE        FAIR      21   6  52 N8        30.28R WCI  11
RICHMOND       FAIR      21   3  45 N5        30.33R
RALEIGH        PTCLDY    27   6  41 NE7       30.30S

$$

ANZ530>537-120600-
MARINE OBSERVATIONS

STATION/POSITION TIME  TEMP    WIND        PRES
                       AIR SEA DIR/SP/G
                 (UTC) (F)     (DEG/KT/KT) (MB)
THOMAS PT LIGHT  NOT AVBL
BALT KEY BRIDGE  0400   22     270/ 13/ 15 1026.6R
COVE POINT       0400   23     340/ 12/ 19 1027.6S
LEWISETTA        0400   25 39  340/ 11/ 17 1026.9R
SOLOMONS ISLAND  0400   25 40  320/  8/ 16   N/A
PINEY POINT      0400           10/ 15/ 17   N/A

$$




USA.gov is the U.S. government's official web portal to all federal, state and local government web resources and services.